Waarnemingen

Advertentie
Mijn weer
Badajoz/Talavera La Real, Spanje (8330): temperatuur & dauwpunt: 12.11.2019 13:00:00 - 18.11.2019 13:00:00 (CET)Badajoz/Talavera La Real, Spanje (8330): windsnelheid: 12.11.2019 13:00:00 - 18.11.2019 13:00:00 (CET)Badajoz/Talavera La Real, Spanje (8330): windrichting: 12.11.2019 13:00:00 - 18.11.2019 13:00:00 (CET)Badajoz/Talavera La Real, Spanje (8330): luchtdruk: 12.11.2019 13:00:00 - 18.11.2019 13:00:00 (CET)Badajoz/Talavera La Real, Spanje (8330): zicht: 12.11.2019 13:00:00 - 18.11.2019 13:00:00 (CET)Badajoz/Talavera La Real, Spanje (8330): neerslag: 12.11.2019 13:00:00 - 18.11.2019 13:00:00 (CET)
Datum & Tijd tt [°C] td [°C] ff [km/u] ff [kn] dd ppp [hPa] vv [km] rr [mm]
18.11.2019 13:00:00 14,0 5,1 11 6 N 1017,7 30 -
18.11.2019 12:00:00 12,9 5,6 8 4 NNW 1018,1 - 0,0
18.11.2019 11:00:00 10,7 6,4 9 5 WNW 1018,0 - 0,0
18.11.2019 10:00:00 8,3 5,6 11 6 W 1017,8 20 -
18.11.2019 09:00:00 5,8 4,8 8 4 W 1017,3 - 0,0
18.11.2019 08:00:00 5,5 4,5 8 4 W 1016,5 - 0,0
18.11.2019 07:00:00 5,9 4,7 8 4 W 1016,3 10 -
18.11.2019 06:00:00 6,5 4,8 8 4 W 1015,6 - 0,0
18.11.2019 05:00:00 6,8 4,8 9 5 W 1015,4 - 0,0
18.11.2019 04:00:00 6,7 5,0 13 7 W 1014,8 - -
18.11.2019 03:00:00 7,2 5,2 15 8 W 1014,8 - 0,0
18.11.2019 02:00:00 8,1 6,4 15 8 WNW 1014,6 - 0,0
18.11.2019 01:00:00 8,9 6,2 16 9 WNW 1014,1 - -
18.11.2019 00:00:00 11,0 9,1 22 12 WNW 1013,7 - 0,0
17.11.2019 23:00:00 12,7 11,6 16 9 W 1013,4 - 0,0
17.11.2019 22:00:00 13,0 11,9 11 6 W 1013,2 - -
17.11.2019 21:00:00 13,4 12,0 13 7 W 1013,1 - 0,0
17.11.2019 20:00:00 13,7 12,3 11 6 WZW 1013,3 - 0,0
17.11.2019 19:00:00 13,9 12,5 9 5 WZW 1013,4 10 -
17.11.2019 18:00:00 14,2 12,6 16 9 W 1013,7 - 2,0
17.11.2019 17:00:00 15,0 13,4 8 4 W 1013,8 - 6,0
17.11.2019 16:00:00 16,4 12,7 18 10 W 1013,9 15 -
17.11.2019 15:00:00 16,3 13,4 11 6 WZW 1014,7 - 0,0
17.11.2019 14:00:00 15,3 13,7 9 5 WZW 1015,7 - 0,0
17.11.2019 13:00:00 13,8 12,7 8 4 ZW 1016,6 6 -
17.11.2019 12:00:00 12,6 11,5 11 6 ZW 1017,4 - 0,0
17.11.2019 11:00:00 11,5 10,7 11 6 WZW 1017,6 - 0,0
17.11.2019 10:00:00 10,1 9,3 5 3 W 1017,6 4,0 -
17.11.2019 09:00:00 9,1 8,3 4 2 ZW 1017,6 - 0,0
17.11.2019 08:00:00 8,5 7,4 2 1 ZW 1017,7 - 0,2
17.11.2019 07:00:00 8,0 7,1 5 3 Z 1017,7 4,0 -
17.11.2019 06:00:00 7,8 6,6 5 3 ZZW 1018,3 - 0,2
17.11.2019 05:00:00 8,0 6,5 4 2 ZZW 1018,7 - 0,4
17.11.2019 04:00:00 8,0 6,1 5 3 WZW 1019,2 - -
17.11.2019 03:00:00 8,4 4,2 8 4 W 1019,5 - 0,0
17.11.2019 02:00:00 8,2 3,4 5 3 ZW 1019,7 - 0,0
17.11.2019 01:00:00 8,4 3,2 8 4 WZW 1020,0 - -
17.11.2019 00:00:00 7,5 2,8 9 5 WZW 1020,3 - 0,0
16.11.2019 23:00:00 7,2 2,1 4 2 ZW 1020,4 - 0,0
16.11.2019 22:00:00 8,2 2,2 4 2 ZW 1020,1 - -
16.11.2019 21:00:00 9,5 2,3 11 6 W 1019,9 - 0,0
16.11.2019 20:00:00 10,0 2,3 11 6 W 1019,5 - 0,0
16.11.2019 19:00:00 10,2 1,6 8 4 W 1018,8 20 -
16.11.2019 18:00:00 12,4 0,8 9 5 W 1018,4 - 0,0
16.11.2019 17:00:00 14,5 0,0 13 7 W 1018,1 - 0,0
16.11.2019 16:00:00 14,8 1,0 11 6 W 1017,6 25 -
16.11.2019 15:00:00 15,3 0,3 11 6 W 1017,6 - 0,0
16.11.2019 14:00:00 14,2 -0,7 9 5 NW 1017,9 - 0,0
16.11.2019 13:00:00 12,9 0,9 9 5 W 1018,3 25 -
16.11.2019 12:00:00 10,7 1,5 8 4 W 1019,1 - 0,0
16.11.2019 11:00:00 9,1 1,5 5 3 W 1019,0 - 0,0
16.11.2019 10:00:00 6,6 1,5 5 3 W 1018,5 25 -
16.11.2019 09:00:00 2,3 0,4 2 1 ZW 1018,0 - 0,0
16.11.2019 08:00:00 2,6 0,3 5 3 WZW 1017,0 - 0,0
16.11.2019 07:00:00 2,3 0,4 9 5 W 1016,1 10 -
16.11.2019 06:00:00 3,1 0,7 8 4 W 1015,3 - 0,0
16.11.2019 05:00:00 4,3 1,0 9 5 W 1014,5 - 0,0
16.11.2019 04:00:00 3,8 1,0 8 4 W 1013,9 - -
16.11.2019 03:00:00 4,2 1,4 8 4 W 1013,8 - 0,0
16.11.2019 02:00:00 3,3 0,7 9 5 W 1013,6 - 0,0
16.11.2019 01:00:00 4,0 0,9 9 5 W 1013,2 - -
16.11.2019 00:00:00 5,0 0,7 8 4 W 1012,6 - 0,0
15.11.2019 23:00:00 5,7 0,5 11 6 W 1012,4 - 0,0
15.11.2019 22:00:00 6,7 0,6 8 4 W 1011,7 - -
15.11.2019 21:00:00 7,6 -0,1 13 7 WNW 1011,2 - 0,0
15.11.2019 20:00:00 8,8 0,0 16 9 WNW 1010,5 - 0,0
15.11.2019 19:00:00 10,0 -0,5 21 11 WNW 1009,8 4,0 -
15.11.2019 18:00:00 11,5 -1,3 18 10 WNW 1009,2 - 0,0
15.11.2019 17:00:00 13,2 -1,6 21 11 WNW 1008,7 - 0,0
15.11.2019 16:00:00 13,9 -2,5 22 12 NW 1008,4 40 -
15.11.2019 15:00:00 14,0 -0,9 18 10 NW 1008,6 - 0,0
15.11.2019 14:00:00 13,5 -0,6 24 13 NW 1009,1 - 0,0
15.11.2019 13:00:00 12,6 0,0 26 14 NNW 1009,8 40 -
15.11.2019 12:00:00 11,3 2,8 18 10 WNW 1010,5 - 0,0
15.11.2019 11:00:00 9,6 2,9 24 13 WNW 1010,8 - 0,0
15.11.2019 10:00:00 8,2 3,4 18 10 W 1011,0 30 -
15.11.2019 09:00:00 6,1 3,4 13 7 W 1010,4 - 0,0
15.11.2019 08:00:00 6,4 3,4 15 8 W 1010,2 - 0,0
15.11.2019 07:00:00 6,7 3,3 15 8 W 1010,0 15 -
15.11.2019 06:00:00 6,4 3,0 11 6 W 1009,9 - 0,0
15.11.2019 05:00:00 6,6 3,9 13 7 W 1010,0 - 0,0
15.11.2019 04:00:00 6,7 3,7 15 8 W 1010,0 - -
15.11.2019 03:00:00 7,1 3,7 13 7 W 1010,1 - 0,0
15.11.2019 02:00:00 7,3 3,3 13 7 W 1010,1 - 0,0
15.11.2019 01:00:00 7,7 3,4 18 10 W 1010,4 - -
15.11.2019 00:00:00 8,1 3,4 15 8 W 1010,4 - 0,0
14.11.2019 23:00:00 8,5 3,3 22 12 W 1010,3 - 0,0
14.11.2019 22:00:00 9,7 3,6 16 9 W 1009,9 - -
14.11.2019 21:00:00 10,1 4,9 16 9 W 1009,9 - 0,0
14.11.2019 20:00:00 11,0 6,1 18 10 W 1009,4 - 0,0
14.11.2019 19:00:00 10,7 6,3 13 7 W 1009,6 15 -
14.11.2019 18:00:00 10,3 4,9 15 8 W 1009,2 - 0,0
14.11.2019 17:00:00 12,9 4,1 26 14 W 1009,3 - 0,0
14.11.2019 16:00:00 13,5 4,1 31 17 WNW 1008,7 15 -
14.11.2019 15:00:00 13,4 3,7 28 15 W 1008,3 - 0,0
14.11.2019 14:00:00 12,9 3,8 31 17 WNW 1009,5 - 0,0
14.11.2019 13:00:00 13,2 5,1 29 16 W 1010,2 15 -
14.11.2019 12:00:00 12,1 6,6 24 13 W 1011,2 - 0,0
14.11.2019 11:00:00 11,2 7,3 26 14 WNW 1011,1 - 0,0
14.11.2019 10:00:00 11,0 8,7 24 13 W 1010,9 5 -
14.11.2019 09:00:00 11,5 8,9 22 12 W 1010,2 - 0,0
14.11.2019 08:00:00 12,0 9,9 16 9 W 1009,6 - 0,2
14.11.2019 07:00:00 11,3 10,0 13 7 W 1010,0 8 -
14.11.2019 06:00:00 11,3 9,6 9 5 ZZW 1010,5 - 0,0
14.11.2019 05:00:00 11,1 9,4 9 5 WZW 1011,5 - 0,0
14.11.2019 04:00:00 10,9 8,8 11 6 WZW 1012,7 - -
14.11.2019 03:00:00 10,1 7,9 11 6 W 1013,9 - 0,0
14.11.2019 02:00:00 10,9 8,3 8 4 ZZW 1014,9 - 0,0
14.11.2019 01:00:00 11,1 8,0 11 6 WZW 1016,0 - -
14.11.2019 00:00:00 11,3 7,2 8 4 WZW 1015,7 - 0,0
13.11.2019 23:00:00 11,9 7,6 9 5 W 1016,1 - 0,0
13.11.2019 22:00:00 12,7 8,2 15 8 W 1016,0 - -
13.11.2019 21:00:00 13,6 9,2 16 9 W 1015,7 - 0,0
13.11.2019 20:00:00 14,6 10,0 11 6 W 1015,7 - 0,0
13.11.2019 19:00:00 15,9 10,0 9 5 W 1015,6 25 -
13.11.2019 18:00:00 17,5 10,4 15 8 W 1014,9 - 0,0
13.11.2019 17:00:00 19,0 10,5 16 9 W 1014,7 - 0,0
13.11.2019 16:00:00 20,2 10,9 21 11 W 1014,4 40 -
13.11.2019 15:00:00 20,6 11,2 21 11 W 1013,9 - 0,0
13.11.2019 14:00:00 20,0 11,5 16 9 W 1014,0 - 0,0
13.11.2019 13:00:00 19,5 12,3 18 10 W 1014,8 40 -
13.11.2019 12:00:00 18,2 12,2 26 14 WNW 1015,3 - 0,0
13.11.2019 11:00:00 17,1 12,0 24 13 WNW 1014,9 - 0,0
13.11.2019 10:00:00 16,1 12,6 13 7 W 1014,1 40 -
13.11.2019 09:00:00 14,1 13,0 11 6 WZW 1013,5 - 0,0
13.11.2019 08:00:00 13,9 12,6 11 6 WZW 1012,9 - 0,0
13.11.2019 07:00:00 13,7 12,4 11 6 ZW 1011,9 12 -
13.11.2019 06:00:00 13,9 12,3 13 7 WZW 1012,5 - 0,0
13.11.2019 05:00:00 13,8 11,7 9 5 WZW 1012,5 - 0,0
13.11.2019 04:00:00 14,0 11,3 11 6 WZW 1013,0 - -
13.11.2019 03:00:00 13,8 11,3 11 6 WZW 1013,5 - 0,0
13.11.2019 02:00:00 13,7 11,4 9 5 ZW 1013,9 - 0,0
13.11.2019 01:00:00 13,9 11,1 9 5 ZZW 1014,8 - -
13.11.2019 00:00:00 13,8 11,1 9 5 WZW 1015,4 - 0,0
12.11.2019 23:00:00 13,7 10,9 8 4 ZW 1015,9 - 0,0
12.11.2019 22:00:00 13,5 10,3 9 5 WZW 1016,1 - -
12.11.2019 21:00:00 13,9 9,7 11 6 WZW 1016,1 - 0,0
12.11.2019 20:00:00 14,4 9,2 13 7 W 1016,3 - 0,0
12.11.2019 19:00:00 15,0 8,7 13 7 W 1016,7 15 -
12.11.2019 18:00:00 15,8 7,8 13 7 W 1016,6 - 0,0
12.11.2019 17:00:00 17,5 7,0 16 9 W 1016,6 - 0,0
12.11.2019 16:00:00 18,0 5,9 15 8 W 1016,6 30 -
12.11.2019 15:00:00 17,8 4,0 21 11 NW 1017,2 - 0,0
12.11.2019 14:00:00 17,4 4,0 22 12 NW 1017,8 - 0,0
12.11.2019 13:00:00 16,3 3,4 28 15 NW 1019,0 20 -

tt = temperatuur
td = dauwpunt
ff = windsnelheid
dd = windrichting
ppp = luchtdruk
vv = zicht
rr = neerslag

Weerstations in de omgeving